GW1021 Weather Reports


time (UTC)temp
C
wind
direction
speed
KPH
gust
KPH
rain 1hr
cm
rain 24hr
cm
rain mn
cm
humidity
%
barometer
mb
20260906080149 18 303 0.0 0.0 0.00 0.00 0.00 96 1014.2
20260906075648 18 283 0.0 0.0 0.00 0.00 0.00 96 1014.3
20260906075143 18 50 4.8 4.8 0.00 0.00 0.00 96 1014.4
20260906074638 18 23 3.2 3.2 0.00 0.00 0.00 96 1014.2
20260906074137 18 324 1.6 1.6 0.00 0.00 0.00 97 1014.3
20260906073632 18 320 1.6 1.6 0.00 0.00 0.00 97 1014.1
20260906073128 18 55 1.6 3.2 0.00 0.00 0.00 97 1014.1
20260906072622 18 356 1.6 3.2 0.00 0.00 0.00 97 1014.0
20260906072118 18 52 4.8 4.8 0.00 0.00 0.00 98 1014.1
20260906071615 18 52 0.0 1.6 0.00 0.00 0.00 98 1013.9
20260906071109 18 36 3.2 4.8 0.00 0.00 0.00 98 1014.1
20260906070606 18 75 4.8 9.7 0.00 0.00 0.00 99 1014.2
20260906070101 18 79 3.2 3.2 0.00 0.00 0.00 99 1014.2
20260906065600 18 41 4.8 8.0 0.00 0.00 0.00 99 1013.9
20260906065056 18 356 1.6 1.6 0.00 0.00 0.00 99 1014.2
20260906064552 18 307 1.6 1.6 0.00 0.00 0.00 99 1014.3
20260906064046 19 353 1.6 1.6 0.00 0.00 0.00 99 1014.2
20260906063541 19 81 1.6 1.6 0.00 0.00 0.00 99 1014.2
20260906063038 19 342 1.6 1.6 0.00 0.00 0.00 99 1014.3
20260906062533 20 62 1.6 3.2 0.00 0.00 0.00 99 1014.2
20260906062027 20 12 1.6 1.6 0.00 0.00 0.00 99 1014.3
20260906061523 20 71 3.2 4.8 0.00 0.00 0.00 99 1014.2
20260906061022 20 6 1.6 1.6 0.00 0.00 0.00 99 1014.2
20260906060519 20 313 3.2 3.2 0.00 0.00 0.00 99 1014.2
20260906060016 20 55 1.6 3.2 0.00 0.00 0.00 99 1014.3
20260906055511 20 13 0.0 0.0 0.00 0.00 0.00 99 1014.3
20260906055006 20 52 1.6 3.2 0.00 0.00 0.00 99 1014.1
20260906054501 21 84 1.6 1.6 0.00 0.00 0.00 99 1014.1
20260906053956 21 80 1.6 1.6 0.00 0.00 0.00 99 1014.0
20260906053453 21 14 1.6 1.6 0.00 0.00 0.00 99 1014.0
20260906052948 21 57 1.6 3.2 0.00 0.00 0.00 99 1013.9
20260906052444 21 81 3.2 3.2 0.00 0.00 0.00 99 1013.8
20260906051941 21 99 0.0 0.0 0.00 0.00 0.00 99 1013.8
20260906051436 21 66 3.2 3.2 0.00 0.00 0.00 99 1013.9
20260906050932 21 337 1.6 1.6 0.00 0.00 0.00 99 1013.8
20260906050431 21 59 1.6 3.2 0.00 0.00 0.00 99 1013.8
20260906045930 21 36 1.6 3.2 0.00 0.00 0.00 99 1013.8
20260906045429 21 59 1.6 1.6 0.00 0.00 0.00 99 1013.9
20260906044926 21 327 1.6 1.6 0.00 0.00 0.00 99 1013.8
20260906044420 21 321 1.6 1.6 0.00 0.00 0.00 99 1013.6
20260906043915 21 29 4.8 8.0 0.00 0.00 0.00 99 1013.7
20260906043412 21 21 1.6 1.6 0.00 0.00 0.00 99 1013.4
20260906042907 21 10 4.8 4.8 0.00 0.00 0.00 99 1013.5
20260906042406 22 357 3.2 4.8 0.00 0.00 0.00 99 1013.8
20260906041901 22 10 3.2 3.2 0.00 0.00 0.00 99 1013.4
20260906041356 22 2 4.8 8.0 0.00 0.00 0.00 99 1013.5
20260906040851 22 3 1.6 4.8 0.00 0.00 0.00 99 1013.4
20260906040346 22 338 1.6 1.6 0.00 0.00 0.00 99 1013.5
20260906035842 22 59 4.8 4.8 0.00 0.08 0.08 99 1013.4
20260906035337 22 56 0.0 3.2 0.00 0.08 0.08 99 1013.6
20260906034832 22 352 3.2 3.2 0.00 0.08 0.08 99 1013.5
20260906034327 22 63 1.6 1.6 0.00 0.08 0.08 99 1013.4
20260906033823 22 348 1.6 1.6 0.00 0.08 0.08 99 1013.4
20260906033322 22 54 4.8 8.0 0.00 0.08 0.08 99 1013.4
20260906032818 22 64 1.6 3.2 0.00 0.08 0.08 99 1013.3
20260906032314 22 129 1.6 1.6 0.00 0.08 0.08 99 1013.4
20260906031809 22 343 1.6 1.6 0.00 0.08 0.08 99 1013.5
20260906031305 22 9 1.6 3.2 0.00 0.08 0.08 99 1013.8
20260906030804 22 64 0.0 1.6 0.00 0.08 0.08 99 1013.6
20260906030300 22 32 3.2 3.2 0.00 0.08 0.08 99 1013.6
20260906025759 22 10 0.0 1.6 0.00 0.08 0.08 99 1013.5
20260906025253 22 309 0.0 1.6 0.00 0.08 0.08 99 1013.6
20260906024752 23 299 0.0 0.0 0.00 0.08 0.08 99 1013.6
20260906024252 23 48 0.0 0.0 0.00 0.08 0.08 99 1013.5
20260906023747 23 57 1.6 1.6 0.00 0.08 0.08 99 1013.6
20260906023242 23 59 1.6 3.2 0.00 0.08 0.08 99 1013.7
20260906022738 23 82 3.2 4.8 0.00 0.08 0.08 99 1013.9
20260906022233 23 60 3.2 3.2 0.00 0.08 0.08 99 1013.7
20260906021729 23 97 1.6 1.6 0.00 0.08 0.08 99 1013.7
20260906021228 23 81 3.2 3.2 0.00 0.08 0.08 99 1013.8
20260906020723 23 121 3.2 4.8 0.00 0.08 0.08 99 1013.7
20260906020218 23 76 6.4 8.0 0.00 0.08 0.08 98 1013.7
20260906015712 23 91 9.7 11.3 0.00 0.08 0.08 98 1013.5
20260906015211 23 48 4.8 4.8 0.00 0.08 0.08 98 1013.5
20260906014711 23 68 4.8 8.0 0.00 0.08 0.08 98 1013.7
20260906014207 24 97 8.0 9.7 0.00 0.08 0.08 98 1013.4
20260906013702 24 77 1.6 3.2 0.00 0.08 0.08 98 1013.2
20260906013157 24 82 6.4 9.7 0.00 0.08 0.08 99 1013.2
20260906012657 24 69 1.6 1.6 0.00 0.08 0.08 99 1013.2
20260906012151 23 91 4.8 4.8 0.00 0.08 0.08 99 1013.3
20260906011648 23 70 3.2 3.2 0.00 0.08 0.08 99 1013.2
20260906011142 23 67 1.6 3.2 0.00 0.08 0.08 98 1013.2
20260906010637 23 110 6.4 8.0 0.00 0.08 0.08 98 1013.1
20260906010134 22 93 1.6 1.6 0.00 0.08 0.08 97 1012.9
20260906005633 23 84 0.0 0.0 0.00 0.08 0.08 96 1013.0
20260906005127 22 85 1.6 1.6 0.00 0.08 0.08 97 1012.9
20260906004626 22 130 0.0 0.0 0.00 0.08 0.08 97 1012.7
20260906004121 22 275 0.0 0.0 0.00 0.08 0.08 96 1012.7
20260906003616 22 275 0.0 0.0 0.00 0.08 0.08 95 1012.6
20260906003112 22 275 0.0 0.0 0.00 0.08 0.08 94 1012.6
20260906002607 23 275 0.0 0.0 0.00 0.08 0.08 94 1012.8
20260906002101 23 275 0.0 0.0 0.00 0.08 0.08 93 1012.7
20260906001556 23 292 0.0 0.0 0.00 0.08 0.08 92 1012.5
20260906001051 23 292 0.0 0.0 0.00 0.08 0.08 91 1012.7
20260906000547 23 311 0.0 0.0 0.00 0.08 0.08 91 1012.6
20260906000042 23 59 0.0 0.0 0.00 0.08 0.08 90 1012.1
20260905235536 23 81 0.0 1.6 0.00 0.08 0.08 90 1012.4
20260905235031 23 280 0.0 1.6 0.00 0.08 0.08 89 1012.3
20260905234526 23 270 0.0 0.0 0.00 0.08 0.08 89 1012.6
20260905234027 24 16 1.6 1.6 0.00 0.08 0.08 89 1012.6
20260905233521 24 4 1.6 3.2 0.00 0.08 0.08 89 1012.5
20260905233021 25 328 1.6 1.6 0.13 0.08 0.08 89 1012.7
20260905232517 25 323 6.4 8.0 0.13 0.08 0.08 88 1012.7
20260905232012 25 339 11.3 12.9 0.00 0.05 0.05 89 1012.9
20260905231508 25 307 8.0 11.3 0.00 0.05 0.05 89 1013.2
20260905231004 25 358 8.0 9.7 0.18 0.05 0.05 89 1012.9
20260905230503 26 327 8.0 11.3 0.30 0.05 0.05 89 1012.6
20260905230001 26 325 4.8 4.8 0.13 0.03 0.03 87 1012.6
20260905225456 26 345 4.8 8.0 0.00 0.00 0.00 87 1012.6
20260905224951 26 339 8.0 9.7 0.00 0.00 0.00 86 1012.6
20260905224446 27 313 1.6 1.6 0.00 0.00 0.00 85 1012.1
20260905223945 27 304 1.6 3.2 0.00 0.00 0.00 84 1012.0
20260905223443 27 348 6.4 9.7 0.00 0.00 0.00 84 1012.6
20260905222943 28 6 3.2 3.2 0.00 0.00 0.00 82 1012.4
20260905222438 28 357 3.2 3.2 0.00 0.00 0.00 83 1012.1
20260905221934 29 231 0.0 0.0 0.00 0.00 0.00 80 1011.6
20260905221430 29 240 0.0 0.0 0.00 0.00 0.00 79 1011.7
20260905220926 30 269 0.0 0.0 0.00 0.00 0.00 77 1011.7
20260905220422 30 269 0.0 0.0 0.00 0.00 0.00 76 1011.6
20260905215920 30 264 1.6 1.6 0.00 0.00 0.00 76 1011.6
20260905215416 30 287 0.0 1.6 0.00 0.00 0.00 75 1011.5
20260905214913 30 284 3.2 3.2 0.00 0.00 0.00 75 1011.4
20260905214408 31 279 3.2 3.2 0.00 0.00 0.00 73 1011.5
20260905213908 31 292 3.2 3.2 0.00 0.00 0.00 70 1011.5
20260905213404 32 276 4.8 4.8 0.00 0.00 0.00 71 1011.5
20260905212859 32 275 6.4 8.0 0.00 0.00 0.00 69 1011.5
20260905212354 32 252 4.8 4.8 0.00 0.00 0.00 68 1011.5
20260905211853 32 266 4.8 4.8 0.00 0.00 0.00 70 1011.5
20260905211349 32 240 4.8 8.0 0.00 0.00 0.00 69 1011.7
20260905210845 32 284 4.8 4.8 0.00 0.00 0.00 69 1011.6
20260905210345 31 351 8.0 9.7 0.00 0.00 0.00 69 1011.8
20260905205844 31 312 6.4 8.0 0.00 0.00 0.00 70 1011.8
20260905205339 32 277 6.4 8.0 0.00 0.00 0.00 69 1012.3
20260905204838 32 293 3.2 3.2 0.00 0.00 0.00 71 1012.1
20260905204335 32 1 6.4 8.0 0.00 0.00 0.00 68 1012.3
20260905203833 32 305 4.8 8.0 0.00 0.00 0.00 68 1012.1
20260905203329 32 297 8.0 9.7 0.00 0.00 0.00 70 1012.5
20260905202825 32 352 8.0 11.3 0.00 0.00 0.00 69 1012.4
20260905202319 31 316 4.8 8.0 0.00 0.00 0.00 71 1012.6
20260905201815 31 254 6.4 8.0 0.00 0.00 0.00 70 1012.6
20260905201311 31 263 3.2 3.2 0.00 0.00 0.00 70 1012.7
20260905200805 32 271 4.8 4.8 0.00 0.00 0.00 70 1012.6
20260905200300 32 285 3.2 3.2 0.00 0.00 0.00 70 1012.7
20260905195753 32 286 3.2 3.2 0.00 0.00 0.00 70 1012.6
20260905195248 32 240 4.8 4.8 0.00 0.00 0.00 71 1012.8
20260905194744 32 304 6.4 8.0 0.00 0.00 0.00 70 1012.7
20260905194243 31 276 8.0 9.7 0.00 0.00 0.00 71 1012.9
20260905193743 32 281 6.4 8.0 0.00 0.00 0.00 70 1012.9
20260905193238 31 313 4.8 4.8 0.00 0.00 0.00 68 1013.0
20260905192733 31 275 4.8 4.8 0.00 0.00 0.00 71 1013.1
20260905192229 31 342 4.8 8.0 0.00 0.00 0.00 67 1013.2
20260905191729 31 305 8.0 9.7 0.00 0.00 0.00 69 1013.3
20260905191227 31 274 3.2 3.2 0.00 0.00 0.00 71 1013.3
20260905190726 31 293 4.8 4.8 0.00 0.00 0.00 70 1013.3
20260905190225 31 274 8.0 12.9 0.00 0.00 0.00 68 1013.6
20260905185724 31 261 4.8 4.8 0.00 0.00 0.00 69 1013.5
20260905185219 31 257 11.3 12.9 0.00 0.00 0.00 66 1013.6
20260905184713 31 209 4.8 4.8 0.00 0.00 0.00 68 1013.4
20260905184212 31 268 4.8 4.8 0.00 0.00 0.00 68 1013.7
20260905183706 31 290 4.8 8.0 0.00 0.00 0.00 70 1013.7
20260905183201 31 231 6.4 9.7 0.00 0.00 0.00 69 1013.7
20260905182701 30 316 3.2 4.8 0.00 0.00 0.00 72 1013.9
20260905182201 30 288 6.4 8.0 0.00 0.00 0.00 73 1014.0
20260905181656 30 245 6.4 8.0 0.00 0.00 0.00 69 1013.9
20260905181155 30 218 6.4 9.7 0.00 0.00 0.00 70 1014.0
20260905180649 30 233 9.7 12.9 0.00 0.00 0.00 71 1014.1
20260905180145 30 224 6.4 8.0 0.00 0.00 0.00 70 1013.9
20260905175644 30 233 4.8 8.0 0.00 0.00 0.00 71 1014.0
20260905175140 29 295 6.4 9.7 0.00 0.00 0.00 72 1014.0
20260905174635 29 301 8.0 11.3 0.00 0.00 0.00 73 1014.0
20260905174131 29 274 3.2 3.2 0.00 0.00 0.00 73 1014.1
20260905173626 28 287 12.9 12.9 0.00 0.00 0.00 71 1014.0
20260905173122 28 283 6.4 8.0 0.00 0.00 0.00 77 1013.9
20260905172621 27 273 6.4 8.0 0.00 0.00 0.00 76 1014.1
20260905172116 27 268 6.4 9.7 0.00 0.00 0.00 77 1013.9
20260905171612 28 299 4.8 4.8 0.00 0.00 0.00 76 1014.1
20260905171108 28 272 4.8 4.8 0.00 0.00 0.00 75 1013.7
20260905170604 28 241 6.4 8.0 0.00 0.00 0.00 73 1013.7
20260905170059 29 237 12.9 16.1 0.00 0.00 0.00 71 1013.6
20260905165554 29 237 12.9 14.5 0.00 0.00 0.00 72 1013.7
20260905165049 29 245 11.3 12.9 0.00 0.00 0.00 73 1013.8
20260905164544 29 246 8.0 9.7 0.00 0.00 0.00 74 1014.0
20260905164038 28 258 6.4 8.0 0.00 0.00 0.00 74 1014.3
20260905163534 28 219 8.0 11.3 0.00 0.00 0.00 72 1014.4
20260905163030 28 282 3.2 4.8 0.00 0.00 0.00 72 1014.5
20260905162527 28 230 8.0 9.7 0.00 0.00 0.00 74 1014.4
20260905162021 27 266 11.3 12.9 0.00 0.00 0.00 74 1014.6
20260905161521 27 254 8.0 11.3 0.00 0.00 0.00 76 1014.6
20260905161018 27 201 9.7 11.3 0.00 0.00 0.00 75 1014.7
20260905160512 27 244 8.0 9.7 0.00 0.00 0.00 78 1014.6
20260905160011 27 237 4.8 4.8 0.00 0.00 0.00 75 1014.9
20260905155506 27 204 8.0 9.7 0.00 0.00 0.00 77 1014.7
20260905155004 27 224 8.0 11.3 0.00 0.00 0.00 79 1014.7
20260905154500 27 257 6.4 9.7 0.00 0.00 0.00 78 1014.6
20260905153955 27 194 4.8 4.8 0.00 0.00 0.00 76 1014.6
20260905153452 26 260 4.8 8.0 0.00 0.00 0.00 81 1014.4
20260905152951 26 223 6.4 9.7 0.00 0.00 0.00 79 1014.5
20260905152451 26 189 4.8 8.0 0.00 0.00 0.00 79 1014.4
20260905151946 26 231 8.0 9.7 0.00 0.00 0.00 79 1014.2
20260905151441 26 241 6.4 8.0 0.00 0.00 0.00 78 1014.4
20260905150936 26 239 6.4 8.0 0.00 0.00 0.00 78 1014.2
20260905150436 26 213 8.0 11.3 0.00 0.00 0.00 78 1014.0
20260905145932 26 227 8.0 9.7 0.00 0.00 0.00 78 1014.1
20260905145427 26 235 12.9 16.1 0.00 0.00 0.00 79 1014.0
20260905144927 25 188 8.0 9.7 0.00 0.00 0.00 79 1014.0
20260905144423 25 160 9.7 11.3 0.00 0.00 0.00 80 1014.1
20260905143921 25 226 9.7 12.9 0.00 0.00 0.00 81 1014.2
20260905143421 25 149 3.2 3.2 0.00 0.00 0.00 82 1014.2
20260905142915 25 229 11.3 12.9 0.00 0.00 0.00 81 1014.3
20260905142414 25 170 3.2 3.2 0.00 0.00 0.00 82 1014.2
20260905141910 25 233 9.7 11.3 0.00 0.00 0.00 82 1014.2
20260905141404 25 240 4.8 8.0 0.00 0.00 0.00 83 1014.5
20260905140901 24 211 6.4 9.7 0.00 0.00 0.00 83 1014.5
20260905140355 24 212 1.6 1.6 0.00 0.00 0.00 85 1014.6
20260905135854 24 207 4.8 4.8 0.00 0.00 0.00 84 1014.4
20260905135350 24 203 1.6 1.6 0.00 0.00 0.00 85 1014.4
20260905134846 24 121 6.4 12.9 0.00 0.00 0.00 84 1014.6
20260905134344 24 215 4.8 8.0 0.00 0.00 0.00 84 1014.5
20260905133838 23 153 4.8 4.8 0.00 0.00 0.00 86 1014.8
20260905133334 23 185 4.8 4.8 0.00 0.00 0.00 88 1014.6
20260905132833 23 132 6.4 8.0 0.00 0.00 0.00 87 1014.9
20260905132329 23 192 4.8 8.0 0.00 0.00 0.00 88 1015.0
20260905131823 23 207 3.2 3.2 0.00 0.00 0.00 89 1015.1
20260905131319 22 253 1.6 1.6 0.00 0.00 0.00 91 1015.0
20260905130814 22 145 3.2 3.2 0.00 0.00 0.00 91 1015.2
20260905130312 22 179 3.2 3.2 0.00 0.00 0.00 93 1015.3
20260905125808 21 96 3.2 3.2 0.00 0.00 0.00 93 1015.4
20260905125305 21 91 8.0 9.7 0.00 0.00 0.00 93 1015.4
20260905124759 21 119 4.8 4.8 0.00 0.00 0.00 94 1015.3
20260905124255 21 137 1.6 3.2 0.00 0.00 0.00 94 1015.4
20260905123749 21 102 4.8 4.8 0.00 0.00 0.00 95 1015.2
20260905123246 20 123 3.2 3.2 0.00 0.00 0.00 95 1014.9
20260905122740 20 118 4.8 4.8 0.00 0.00 0.00 96 1014.6
20260905122234 20 150 1.6 1.6 0.00 0.00 0.00 97 1014.6
20260905121730 20 229 0.0 0.0 0.00 0.00 0.00 97 1014.5
20260905121226 20 130 3.2 3.2 0.00 0.00 0.00 97 1014.5
20260905120724 20 186 4.8 8.0 0.00 0.00 0.00 96 1014.6
20260905120219 20 183 1.6 1.6 0.00 0.00 0.00 96 1014.8
20260905115714 20 169 1.6 3.2 0.00 0.00 0.00 95 1014.9
20260905115209 20 100 4.8 4.8 0.00 0.00 0.00 95 1014.8
20260905114709 20 105 6.4 8.0 0.00 0.00 0.00 94 1014.7
20260905114206 20 78 6.4 8.0 0.00 0.00 0.00 94 1015.1
20260905113701 20 72 6.4 8.0 0.00 0.00 0.00 93 1015.3
20260905113157 20 53 9.7 12.9 0.00 0.00 0.00 93 1015.0
20260905112656 20 105 6.4 8.0 0.00 0.00 0.00 93 1015.0
20260905112152 20 89 9.7 14.5 0.00 0.00 0.00 92 1015.0
20260905111652 20 80 8.0 11.3 0.00 0.00 0.00 92 1015.1
20260905111151 20 3 3.2 3.2 0.00 0.00 0.00 93 1015.3
20260905110650 20 5 3.2 3.2 0.00 0.00 0.00 93 1015.2
20260905110146 20 68 8.0 11.3 0.00 0.00 0.00 93 1015.2
20260905105641 20 85 6.4 8.0 0.00 0.00 0.00 94 1014.8
20260905105140 20 52 6.4 9.7 0.00 0.00 0.00 94 1014.9
20260905104635 20 74 4.8 8.0 0.00 0.00 0.00 94 1015.1
20260905104130 20 56 4.8 4.8 0.00 0.00 0.00 94 1015.3
20260905103626 20 65 4.8 4.8 0.00 0.00 0.00 94 1015.4
20260905103122 20 107 8.0 11.3 0.00 0.00 0.00 94 1015.2
20260905102617 20 66 3.2 8.0 0.00 0.00 0.00 94 1015.1
20260905102114 20 83 4.8 8.0 0.00 0.00 0.00 94 1015.2
20260905101612 20 54 4.8 4.8 0.00 0.00 0.00 94 1015.2
20260905101110 20 61 9.7 12.9 0.00 0.00 0.00 94 1015.0
20260905100607 20 31 8.0 14.5 0.00 0.00 0.00 93 1015.1
20260905100101 21 92 12.9 20.9 0.00 0.00 0.00 93 1015.2
20260905095555 21 11 6.4 9.7 0.00 0.00 0.00 92 1015.3
20260905095051 21 49 9.7 12.9 0.00 0.00 0.00 91 1015.4
20260905094545 21 3 6.4 8.0 0.00 0.00 0.00 92 1015.7
20260905094044 21 34 11.3 14.5 0.00 0.00 0.00 92 1015.3
20260905093539 21 25 9.7 16.1 0.00 0.00 0.00 94 1015.5
20260905093035 21 11 17.7 24.1 0.00 0.00 0.00 99 1014.9
20260905092530 22 329 8.0 9.7 0.00 0.00 0.00 99 1014.8
20260905092026 22 205 0.0 0.0 0.00 0.00 0.00 99 1013.4
20260905091525 22 205 0.0 0.0 0.00 0.00 0.00 99 1013.5
20260905091020 22 205 0.0 0.0 0.00 0.00 0.00 99 1013.5
20260905090519 22 205 0.0 0.0 0.00 0.00 0.00 99 1013.5
20260905090014 22 205 0.0 0.0 0.00 0.00 0.00 99 1013.4
20260905085513 22 205 0.0 0.0 0.00 0.00 0.00 99 1013.6
20260905085009 22 205 0.0 0.0 0.00 0.00 0.00 99 1013.4
20260905084503 22 205 0.0 0.0 0.00 0.00 0.00 99 1013.5
20260905083957 22 205 0.0 0.0 0.00 0.00 0.00 99 1013.3
20260905083453 22 205 0.0 0.0 0.00 0.00 0.00 99 1013.3
20260905082948 22 206 0.0 0.0 0.00 0.00 0.00 99 1013.3
20260905082444 22 207 0.0 0.0 0.00 0.00 0.00 99 1013.0
20260905081939 22 207 0.0 0.0 0.00 0.00 0.00 99 1013.4
20260905081434 22 207 0.0 0.0 0.00 0.00 0.00 99 1013.1
20260905080933 22 208 0.0 0.0 0.00 0.00 0.00 99 1013.1